San Antonio Stinson, TX

2:19 PM CST on January 18, 2018 (GMT -0600)
Stinson Municipal

Weather History for KSSF - December, 2013

Change the Weather History Date:

Tuesday, December 3, 2013

  Actual Average Record
Temperature  
Mean Temperature 68 °F -  
Max Temperature 89 °F 63 °F 89 °F (2013)
Min Temperature 46 °F 44 °F 37 °F (2007)
Cooling Degree Days 2    
Growing Degree Days 18 (Base 50)    
Moisture  
Dew Point 48 °F    
Average Humidity 61    
Maximum Humidity 93    
Minimum Humidity 17    
Precipitation  
Precipitation 0.00 in - - ()
Sea Level Pressure  
Sea Level Pressure 29.66 in    
Wind  
Wind Speed 2 mph (SW)    
Max Wind Speed 8 mph    
Max Gust Speed -    
Visibility 8 miles    
Events      
Averages and records for this station are not official NWS values.
T = Trace of Precipitation, MM = Missing Value Source: NWS Daily Summary

Daily Weather History Graph

Daily Weather History Graph

Search for Another Location

Airport or City:

Trip Planner

Search our weather history database for the weather conditions in past years. The results will help you decide how hot, cold, wet, or windy it might be!

Date:

Astronomy

Dec. 03, 2013 Rise Set
Actual Time 7:12 AM CST 5:35 PM CST
Civil Twilight 6:46 AM CST 6:00 PM CST
Nautical Twilight 6:17 AM CST 6:30 PM CST
Astronomical Twilight 5:48 AM CST 6:59 PM CST
Moon 7:45 AM CST (12/3) 6:38 PM CST (12/3)
Length of Visible Light 11h 14m
Length of Day
10h 22m
New Moon, 1% of the Moon is Illuminated
Dec 3
New Moon
Dec 9
First Quarter
Dec 17
Full
Dec 25
Last Quarter
Jan 1
New

Hourly Weather History & Observations

Time (CST) Temp. Heat Index Dew Point Humidity Pressure Visibility Wind Dir Wind Speed Gust Speed Precip Events Conditions
12:53 AM 55.9 °F - 52.0 °F 87% 29.70 in 7.0 mi NNW 3.5 mph - N/A   Clear
1:53 AM 54.0 °F - 51.1 °F 90% 29.70 in 7.0 mi Calm Calm - N/A   Clear
2:53 AM 54.0 °F - 51.1 °F 90% 29.67 in 6.0 mi Calm Calm - N/A   Clear
3:53 AM 51.1 °F - 48.0 °F 89% 29.67 in 4.0 mi Calm Calm - N/A   Clear
4:53 AM 51.1 °F - 48.0 °F 89% 29.66 in 2.0 mi Calm Calm - N/A   Clear
5:09 AM 50.0 °F - 46.4 °F 87% 29.67 in 5.0 mi Calm Calm - N/A   Clear
5:53 AM 50.0 °F - 46.9 °F 89% 29.67 in 6.0 mi Calm Calm - N/A   Clear
6:53 AM 46.0 °F - 44.1 °F 93% 29.69 in 6.0 mi Calm Calm - N/A   Clear
7:53 AM 48.0 °F - 46.0 °F 93% 29.70 in 5.0 mi Calm Calm - N/A   Clear
8:53 AM 57.0 °F - 53.1 °F 87% 29.72 in 6.0 mi Calm Calm - N/A   Clear
9:53 AM 66.9 °F - 55.9 °F 68% 29.72 in 10.0 mi Calm Calm - N/A   Clear
10:53 AM 75.0 °F - 57.0 °F 53% 29.71 in 10.0 mi SSW 4.6 mph - N/A   Clear
11:53 AM 81.0 °F 80.5 °F 54.0 °F 39% 29.68 in 10.0 mi SW 8.1 mph - N/A   Clear
12:53 PM 86.0 °F - 46.9 °F 26% 29.64 in 10.0 mi WSW 6.9 mph - N/A   Clear
1:53 PM 88.0 °F - 39.9 °F 18% 29.61 in 10.0 mi WSW 8.1 mph - N/A   Clear
2:53 PM 89.1 °F - 39.0 °F 17% 29.59 in 8.0 mi WSW 8.1 mph - N/A   Clear
3:53 PM 87.1 °F - 39.9 °F 19% 29.60 in 10.0 mi SW 6.9 mph - N/A   Clear
4:53 PM 82.9 °F - 44.1 °F 25% 29.60 in 10.0 mi Calm Calm - N/A   Clear
5:46 PM 73.4 °F - 46.4 °F 38% 29.63 in 2.5 mi Calm Calm - N/A   Haze
5:53 PM 73.0 °F - 46.9 °F 39% 29.62 in 2.0 mi Calm Calm - N/A   Haze
6:00 PM 71.6 °F - 48.2 °F 43% 29.63 in 10.0 mi Calm Calm - N/A   Clear
6:53 PM 71.1 °F - 46.0 °F 41% 29.65 in 10.0 mi South 5.8 mph - N/A   Clear
7:53 PM 66.9 °F - 48.0 °F 51% 29.66 in 10.0 mi Calm Calm - N/A   Clear
8:53 PM 62.1 °F - 50.0 °F 65% 29.68 in 10.0 mi Calm Calm - N/A   Clear
9:53 PM 59.0 °F - 50.0 °F 72% 29.68 in 10.0 mi Calm Calm - N/A   Clear
10:53 PM 59.0 °F - 50.0 °F 72% 29.68 in 10.0 mi Calm Calm - N/A   Clear
11:53 PM 57.9 °F - 51.1 °F 78% 29.68 in 10.0 mi Calm Calm - N/A   Clear